This is the latest recevied weather packets stored in our database for station/object KQ7A. If no packets are shown the sender has not sent any weather packets the latest 10 day(s).
| Time | Temp. | Humidity | Pressure | Rain* | Wind** | Luminosity | Snow |
|---|---|---|---|---|---|---|---|
| 1778131435 | 10.56° C | 61% | 1022 hPa | 0 mm | - | 0 W/m² | - |
| 1778131132 | 11.11° C | 62% | 1021.9 hPa | 0 mm | - | 0 W/m² | - |
| 1778130829 | 11.11° C | 61% | 1022 hPa | 0 mm | - | 0 W/m² | - |
| 1778130525 | 11.11° C | 61% | 1022 hPa | 0 mm | - | 0 W/m² | - |
| 1778130222 | 12.22° C | 59% | 1022.1 hPa | 0 mm | - | 0 W/m² | - |
| 1778129914 | 12.22° C | 56% | 1021.9 hPa | 0 mm | - | 0 W/m² | - |
| 1778129610 | 11.67° C | 55% | 1022.1 hPa | 0 mm | - | 0 W/m² | - |
| 1778129308 | 11.11° C | 60% | 1021.9 hPa | 0 mm | - | 0 W/m² | - |
| 1778129004 | 11.67° C | 62% | 1021.8 hPa | 0 mm | - | 0 W/m² | - |
| 1778128700 | 11.11° C | 66% | 1021.6 hPa | 0 mm | - | 0 W/m² | - |
| 1778128397 | 11.67° C | 61% | 1021.6 hPa | 0 mm | - | 0 W/m² | - |
| 1778128093 | 12.22° C | 56% | 1021.8 hPa | 0 mm | - | 0 W/m² | - |
| 1778127789 | 12.22° C | 57% | 1021.6 hPa | 0 mm | - | 0 W/m² | - |
| 1778127486 | 11.67° C | 64% | 1021.6 hPa | 0 mm | - | 0 W/m² | - |
| 1778127182 | 12.22° C | 69% | 1021.6 hPa | 0 mm | - | 0 W/m² | - |
| 1778126880 | 12.78° C | 56% | 1021.5 hPa | 0 mm | - | 0 W/m² | - |
| 1778126575 | 12.78° C | 52% | 1021.3 hPa | 0 mm | - | 0 W/m² | - |
| 1778126272 | 12.22° C | 57% | 1021.2 hPa | 0 mm | - | 0 W/m² | - |
| 1778125967 | 12.78° C | 57% | 1021.5 hPa | 0 mm | - | 0 W/m² | - |
| 1778125665 | 13.33° C | 54% | 1021.2 hPa | 0 mm | - | 0 W/m² | - |
| 1778125361 | 13.89° C | 51% | 1021.2 hPa | 0 mm | - | 0 W/m² | - |
| 1778125060 | 13.89° C | 49% | 1020.9 hPa | 0 mm | - | 0 W/m² | - |
| 1778124757 | 14.44° C | 50% | 1020.8 hPa | 0 mm | - | 0 W/m² | - |
| 1778124454 | 13.89° C | 49% | 1020.7 hPa | 0 mm | - | 0 W/m² | - |
| 1778124150 | 13.89° C | 51% | 1020.8 hPa | 0 mm | - | 0 W/m² | - |
* Rain latest hour (hover to see other rain measurements)
** Current wind speed in m/s (hover to see current wind gust speed)